When you browse on this site, cookies collect data to enhance your experience and personalize the content and advertising you see.
Visit our Privacy Policy to learn more. By continuing to use the site, you agree to this use of cookies and data.
  • In Hungary
  • List of Countries
  • For 7 days
  • Water Temperature
  • Weather Map
  • News
  • Weather Widgets
  • user-avatar
    Login

    Hourly Weather Wilczkowo

    Today, 20 September, Friday

    Time Temperature Precipitation Wind Pressure Humidity
    00:00 +4°C° 0 mm 3 mps 755 mmHg 87%
    01:00 +4°C° 0 mm 3 mps 755 mmHg 87%
    02:00 +5°C° 0 mm 2 mps 755 mmHg 86%
    03:00 +5°C° 0 mm 2 mps 755 mmHg 85%
    04:00 +5°C° 0 mm 2 mps 755 mmHg 84%
    05:00 +6°C° 0 mm 2 mps 755 mmHg 82%
    06:00 +6°C° 0 mm 2 mps 755 mmHg 80%
    07:00 +7°C° 0 mm 3 mps 756 mmHg 79%
    08:00 +9°C° 0.1 mm 3 mps 756 mmHg 73%
    09:00 +10°C° 0.1 mm 3 mps 756 mmHg 68%
    10:00 +12°C° 0.1 mm 3 mps 756 mmHg 62%
    11:00 +12°C° 0.2 mm 3 mps 756 mmHg 60%
    12:00 +13°C° 0.2 mm 3 mps 756 mmHg 58%
    13:00 +13°C° 0.2 mm 4 mps 755 mmHg 56%
    14:00 +13°C° 0 mm 3 mps 755 mmHg 55%
    15:00 +14°C° 0 mm 2 mps 755 mmHg 54%
    16:00 +14°C° 0 mm 2 mps 755 mmHg 54%
    17:00 +13°C° 0 mm 2 mps 754 mmHg 62%
    18:00 +10°C° 0 mm 3 mps 754 mmHg 70%
    19:00 +9°C° 0 mm 3 mps 754 mmHg 78%
    20:00 +9°C° 0.1 mm 3 mps 754 mmHg 82%
    21:00 +10°C° 0.1 mm 4 mps 753 mmHg 86%
    22:00 +10°C° 0.1 mm 4 mps 753 mmHg 91%
    23:00 +10°C° 0.1 mm 4 mps 753 mmHg 91%

    Tomorrow, 21 September, Saturday

    Time Temperature Precipitation Wind Pressure Humidity
    00:00 +10°C° 0.1 mm 5 mps 753 mmHg 92%
    01:00 +10°C° 0.1 mm 5 mps 753 mmHg 93%
    02:00 +10°C° 0 mm 5 mps 753 mmHg 94%
    03:00 +12°C° 0 mm 5 mps 752 mmHg 94%
    04:00 +12°C° 0 mm 5 mps 752 mmHg 95%
    05:00 +12°C° 0 mm 5 mps 752 mmHg 93%
    06:00 +12°C° 0 mm 5 mps 752 mmHg 92%
    07:00 +12°C° 0 mm 5 mps 752 mmHg 91%
    08:00 +13°C° 0 mm 5 mps 752 mmHg 89%
    09:00 +13°C° 0 mm 5 mps 752 mmHg 87%
    10:00 +14°C° 0 mm 5 mps 753 mmHg 84%
    11:00 +14°C° 0 mm 5 mps 753 mmHg 83%
    12:00 +14°C° 0 mm 5 mps 753 mmHg 81%
    13:00 +15°C° 0 mm 4 mps 753 mmHg 79%
    14:00 +15°C° 0 mm 4 mps 753 mmHg 78%
    15:00 +15°C° 0 mm 4 mps 753 mmHg 78%
    16:00 +16°C° 0 mm 3 mps 752 mmHg 77%
    17:00 +14°C° 0 mm 3 mps 752 mmHg 82%
    18:00 +12°C° 0 mm 3 mps 753 mmHg 88%
    19:00 +12°C° 0 mm 2 mps 753 mmHg 93%
    20:00 +12°C° 0 mm 2 mps 753 mmHg 94%
    21:00 +10°C° 0 mm 2 mps 752 mmHg 94%
    22:00 +10°C° 0 mm 2 mps 752 mmHg 95%
    23:00 +10°C° 0 mm 2 mps 752 mmHg 95%

    Day after tomorrow, 22 September, Sunday

    Time Temperature Precipitation Wind Pressure Humidity
    00:00 +9°C° 0 mm 3 mps 752 mmHg 96%
    01:00 +9°C° 0 mm 3 mps 752 mmHg 96%
    02:00 +9°C° 0 mm 3 mps 752 mmHg 96%
    03:00 +9°C° 0 mm 3 mps 752 mmHg 96%
    04:00 +8°C° 0 mm 2 mps 752 mmHg 96%
    05:00 +9°C° 0 mm 3 mps 752 mmHg 94%
    06:00 +10°C° 0 mm 3 mps 752 mmHg 92%
    07:00 +11°C° 0 mm 3 mps 751 mmHg 90%
    08:00 +13°C° 0 mm 3 mps 752 mmHg 83%
    09:00 +16°C° 0 mm 3 mps 752 mmHg 75%
    10:00 +18°C° 0 mm 3 mps 752 mmHg 68%
    11:00 +19°C° 0 mm 3 mps 751 mmHg 63%
    12:00 +20°C° 0 mm 3 mps 751 mmHg 59%
    13:00 +21°C° 0 mm 3 mps 751 mmHg 55%
    14:00 +20°C° 0 mm 2 mps 751 mmHg 57%
    15:00 +20°C° 0 mm 2 mps 750 mmHg 60%
    16:00 +21°C° 0 mm 1 mps 750 mmHg 63%
    17:00 +19°C° 0 mm 1 mps 750 mmHg 71%
    18:00 +16°C° 0 mm 1 mps 750 mmHg 78%
    19:00 +13°C° 0 mm 1 mps 750 mmHg 86%
    20:00 +13°C° 0 mm 2 mps 750 mmHg 88%
    21:00 +13°C° 0 mm 2 mps 750 mmHg 90%
    22:00 +12°C° 0 mm 2 mps 750 mmHg 91%
    23:00 +12°C° 0 mm 2 mps 750 mmHg 92%

    23 September, Monday

    Time Temperature Precipitation Wind Pressure Humidity
    00:00 +12°C° 0 mm 2 mps 750 mmHg 94%
    01:00 +12°C° 0 mm 2 mps 750 mmHg 95%
    02:00 +10°C° 0 mm 3 mps 750 mmHg 95%
    03:00 +10°C° 0 mm 3 mps 750 mmHg 96%
    04:00 +10°C° 0 mm 3 mps 749 mmHg 96%
    05:00 +10°C° 0 mm 3 mps 749 mmHg 94%
    06:00 +11°C° 0 mm 3 mps 749 mmHg 92%
    07:00 +11°C° 0 mm 3 mps 749 mmHg 90%
    08:00 +13°C° 0 mm 3 mps 749 mmHg 84%
    09:00 +16°C° 0 mm 3 mps 749 mmHg 77%
    10:00 +17°C° 0 mm 3 mps 749 mmHg 70%
    11:00 +18°C° 0 mm 3 mps 749 mmHg 66%
    12:00 +19°C° 0 mm 3 mps 748 mmHg 62%
    13:00 +20°C° 0 mm 3 mps 748 mmHg 58%
    14:00 +20°C° 0 mm 3 mps 748 mmHg 60%
    15:00 +20°C° 0 mm 3 mps 747 mmHg 62%
    16:00 +20°C° 0 mm 3 mps 747 mmHg 64%
    17:00 +18°C° 0 mm 3 mps 747 mmHg 72%
    18:00 +16°C° 0 mm 3 mps 747 mmHg 79%
    19:00 +13°C° 0 mm 3 mps 747 mmHg 87%
    20:00 +13°C° 0 mm 3 mps 747 mmHg 89%
    21:00 +12°C° 0 mm 3 mps 747 mmHg 91%
    22:00 +11°C° 0 mm 3 mps 747 mmHg 93%
    23:00 +12°C° 0 mm 2 mps 747 mmHg 94%

    24 September, Tuesday

    Time Temperature Precipitation Wind Pressure Humidity
    00:00 +12°C° 0 mm 2 mps 747 mmHg 95%
    01:00 +10°C° 0 mm 2 mps 747 mmHg 95%
    02:00 +10°C° 0 mm 2 mps 747 mmHg 95%
    03:00 +9°C° 0 mm 2 mps 747 mmHg 95%
    04:00 +9°C° 0 mm 2 mps 747 mmHg 95%
    05:00 +9°C° 0 mm 2 mps 747 mmHg 93%
    06:00 +10°C° 0 mm 2 mps 747 mmHg 92%
    07:00 +10°C° 0 mm 2 mps 747 mmHg 90%
    08:00 +13°C° 0 mm 2 mps 748 mmHg 83%
    09:00 +15°C° 0 mm 2 mps 748 mmHg 75%
    10:00 +17°C° 0 mm 2 mps 748 mmHg 67%
    11:00 +18°C° 0 mm 2 mps 748 mmHg 63%
    12:00 +19°C° 0 mm 2 mps 748 mmHg 59%
    13:00 +20°C° 0 mm 2 mps 748 mmHg 56%
    14:00 +19°C° 0 mm 2 mps 748 mmHg 57%
    15:00 +19°C° 0 mm 2 mps 748 mmHg 59%
    16:00 +19°C° 0 mm 2 mps 747 mmHg 61%
    17:00 +17°C° 0 mm 2 mps 747 mmHg 68%
    18:00 +14°C° 0 mm 3 mps 747 mmHg 75%
    19:00 +12°C° 0 mm 3 mps 747 mmHg 82%
    20:00 +12°C° 0 mm 3 mps 747 mmHg 83%
    21:00 +11°C° 0 mm 3 mps 747 mmHg 83%
    22:00 +11°C° 0 mm 3 mps 747 mmHg 83%
    23:00 +11°C° 0 mm 3 mps 747 mmHg 84%

    25 September, Wednesday

    Time Temperature Precipitation Wind Pressure Humidity
    00:00 +10°C° 0 mm 3 mps 746 mmHg 85%
    01:00 +10°C° 0 mm 3 mps 746 mmHg 87%
    02:00 +10°C° 0 mm 3 mps 746 mmHg 87%
    03:00 +10°C° 0 mm 3 mps 745 mmHg 88%
    04:00 +10°C° 0 mm 3 mps 745 mmHg 88%
    05:00 +11°C° 0 mm 3 mps 745 mmHg 86%
    06:00 +12°C° 0 mm 4 mps 744 mmHg 83%
    07:00 +13°C° 0 mm 4 mps 744 mmHg 81%
    08:00 +14°C° 0 mm 4 mps 744 mmHg 77%
    09:00 +15°C° 0 mm 4 mps 744 mmHg 74%
    10:00 +18°C° 0 mm 4 mps 744 mmHg 70%
    11:00 +17°C° 0.6 mm 4 mps 743 mmHg 75%
    12:00 +15°C° 0.6 mm 4 mps 743 mmHg 80%
    13:00 +16°C° 0.6 mm 3 mps 742 mmHg 85%
    14:00 +14°C° 0.2 mm 3 mps 742 mmHg 87%
    15:00 +14°C° 0.2 mm 3 mps 742 mmHg 88%
    16:00 +15°C° 0.2 mm 2 mps 742 mmHg 89%
    17:00 +14°C° 0.3 mm 3 mps 742 mmHg 91%
    18:00 +14°C° 0.3 mm 3 mps 742 mmHg 92%
    19:00 +13°C° 0.3 mm 3 mps 742 mmHg 94%
    20:00 +13°C° 0.6 mm 3 mps 741 mmHg 95%
    21:00 +13°C° 0.6 mm 3 mps 741 mmHg 95%
    22:00 +13°C° 0.6 mm 4 mps 741 mmHg 96%
    23:00 +13°C° 0.3 mm 3 mps 741 mmHg 95%
    Show more